When you browse on this site, cookies collect data to enhance your experience and personalize the content and advertising you see.
Visit our Privacy Policy to learn more. By continuing to use the site, you agree to this use of cookies and data.
  • In Lithuania
  • List of Countries
  • For 7 days
  • Water Temperature
  • Weather Map
  • Weather Widgets
  • user-avatar
    Login

    Hourly Weather Nashavar

    Today, 27 May, Wednesday

    Time Temperature Precipitation Wind Pressure Humidity
    00:00 +36°C° 0 mm 2 mps 723 mmHg 15%
    01:00 +35°C° 0 mm 2 mps 723 mmHg 17%
    02:00 +34°C° 0 mm 2 mps 723 mmHg 19%
    03:00 +34°C° 0 mm 2 mps 723 mmHg 20%
    04:00 +32°C° 0 mm 2 mps 722 mmHg 21%
    05:00 +31°C° 0 mm 2 mps 722 mmHg 23%
    06:00 +34°C° 0 mm 2 mps 722 mmHg 21%
    07:00 +36°C° 0 mm 3 mps 723 mmHg 18%
    08:00 +37°C° 0 mm 3 mps 723 mmHg 16%
    09:00 +39°C° 0 mm 3 mps 723 mmHg 14%
    10:00 +41°C° 0 mm 4 mps 723 mmHg 13%
    11:00 +43°C° 0 mm 4 mps 723 mmHg 11%
    12:00 +44°C° 0 mm 4 mps 723 mmHg 10%
    13:00 +45°C° 0 mm 4 mps 722 mmHg 9%
    14:00 +47°C° 0 mm 4 mps 722 mmHg 8%
    15:00 +47°C° 0 mm 4 mps 722 mmHg 9%
    16:00 +47°C° 0 mm 4 mps 721 mmHg 9%
    17:00 +47°C° 0 mm 4 mps 721 mmHg 9%
    18:00 +44°C° 0 mm 3 mps 721 mmHg 11%
    19:00 +42°C° 0 mm 3 mps 721 mmHg 13%
    20:00 +39°C° 0 mm 2 mps 722 mmHg 15%
    21:00 +38°C° 0 mm 3 mps 722 mmHg 16%
    22:00 +38°C° 0 mm 3 mps 722 mmHg 18%
    23:00 +37°C° 0 mm 4 mps 722 mmHg 19%

    Tomorrow, 28 May, Thursday

    Time Temperature Precipitation Wind Pressure Humidity
    00:00 +36°C° 0 mm 3 mps 721 mmHg 20%
    01:00 +35°C° 0 mm 3 mps 721 mmHg 22%
    02:00 +34°C° 0 mm 3 mps 721 mmHg 23%
    03:00 +34°C° 0 mm 3 mps 721 mmHg 23%
    04:00 +33°C° 0 mm 3 mps 721 mmHg 24%
    05:00 +33°C° 0 mm 3 mps 721 mmHg 24%
    06:00 +34°C° 0 mm 3 mps 721 mmHg 22%
    07:00 +36°C° 0 mm 3 mps 722 mmHg 20%
    08:00 +37°C° 0 mm 3 mps 722 mmHg 18%
    09:00 +39°C° 0 mm 3 mps 722 mmHg 16%
    10:00 +40°C° 0 mm 3 mps 722 mmHg 15%
    11:00 +42°C° 0 mm 3 mps 722 mmHg 13%
    12:00 +43°C° 0 mm 3 mps 721 mmHg 12%
    13:00 +44°C° 0 mm 3 mps 721 mmHg 12%
    14:00 +45°C° 0 mm 2 mps 721 mmHg 11%
    15:00 +45°C° 0 mm 3 mps 721 mmHg 11%
    16:00 +45°C° 0 mm 3 mps 721 mmHg 11%
    17:00 +45°C° 0 mm 4 mps 721 mmHg 11%
    18:00 +43°C° 0 mm 3 mps 721 mmHg 13%
    19:00 +40°C° 0 mm 3 mps 721 mmHg 16%
    20:00 +38°C° 0 mm 3 mps 721 mmHg 18%
    21:00 +37°C° 0 mm 3 mps 722 mmHg 20%
    22:00 +36°C° 0 mm 2 mps 722 mmHg 22%
    23:00 +36°C° 0 mm 2 mps 722 mmHg 24%

    Day after tomorrow, 29 May, Friday

    Time Temperature Precipitation Wind Pressure Humidity
    00:00 +35°C° 0 mm 2 mps 722 mmHg 24%
    01:00 +35°C° 0 mm 2 mps 722 mmHg 25%
    02:00 +35°C° 0 mm 2 mps 722 mmHg 26%
    03:00 +34°C° 0.1 mm 2 mps 722 mmHg 27%
    04:00 +32°C° 0.1 mm 2 mps 721 mmHg 28%
    05:00 +32°C° 0.1 mm 2 mps 721 mmHg 30%
    06:00 +34°C° 0.1 mm 2 mps 722 mmHg 28%
    07:00 +35°C° 0.1 mm 2 mps 722 mmHg 26%
    08:00 +36°C° 0.1 mm 2 mps 723 mmHg 24%
    09:00 +37°C° 0 mm 2 mps 723 mmHg 22%
    10:00 +38°C° 0 mm 2 mps 723 mmHg 20%
    11:00 +40°C° 0 mm 2 mps 723 mmHg 18%
    12:00 +40°C° 0 mm 2 mps 723 mmHg 17%
    13:00 +42°C° 0 mm 3 mps 723 mmHg 15%
    14:00 +43°C° 0 mm 4 mps 723 mmHg 14%
    15:00 +43°C° 0 mm 3 mps 723 mmHg 14%
    16:00 +43°C° 0 mm 3 mps 723 mmHg 14%
    17:00 +42°C° 0 mm 2 mps 723 mmHg 14%
    18:00 +40°C° 0 mm 3 mps 723 mmHg 18%
    19:00 +38°C° 0 mm 3 mps 723 mmHg 22%
    20:00 +36°C° 0 mm 4 mps 723 mmHg 27%
    21:00 +35°C° 0 mm 3 mps 724 mmHg 29%
    22:00 +34°C° 0 mm 2 mps 724 mmHg 31%
    23:00 +33°C° 0 mm 1 mps 724 mmHg 34%

    30 May, Saturday

    Time Temperature Precipitation Wind Pressure Humidity
    00:00 +32°C° 0 mm 2 mps 724 mmHg 36%
    01:00 +31°C° 0 mm 2 mps 724 mmHg 38%
    02:00 +30°C° 0 mm 2 mps 724 mmHg 40%
    03:00 +30°C° 0 mm 2 mps 724 mmHg 41%
    04:00 +29°C° 0 mm 1 mps 724 mmHg 43%
    05:00 +29°C° 0 mm 1 mps 724 mmHg 45%
    06:00 +30°C° 0 mm 1 mps 725 mmHg 42%
    07:00 +31°C° 0 mm 1 mps 725 mmHg 40%
    08:00 +31°C° 0 mm 2 mps 726 mmHg 38%
    09:00 +32°C° 0 mm 2 mps 726 mmHg 36%
    10:00 +35°C° 0 mm 2 mps 726 mmHg 34%
    11:00 +36°C° 0 mm 2 mps 727 mmHg 32%
    12:00 +36°C° 0 mm 2 mps 727 mmHg 30%
    13:00 +37°C° 0 mm 3 mps 726 mmHg 29%
    14:00 +37°C° 0 mm 3 mps 726 mmHg 28%
    15:00 +35°C° 0.5 mm 4 mps 726 mmHg 35%
    16:00 +34°C° 0.5 mm 5 mps 726 mmHg 41%
    17:00 +32°C° 0.5 mm 5 mps 725 mmHg 48%
    18:00 +32°C° 0 mm 4 mps 726 mmHg 47%
    19:00 +31°C° 0 mm 3 mps 726 mmHg 46%
    20:00 +31°C° 0 mm 2 mps 726 mmHg 46%
    21:00 +30°C° 0 mm 2 mps 727 mmHg 48%
    22:00 +29°C° 0 mm 1 mps 727 mmHg 50%
    23:00 +29°C° 0 mm 1 mps 727 mmHg 53%

    31 May, Sunday

    Time Temperature Precipitation Wind Pressure Humidity
    00:00 +28°C° 0 mm 1 mps 726 mmHg 54%
    01:00 +28°C° 0 mm 1 mps 726 mmHg 55%
    02:00 +26°C° 0 mm 0 mps 726 mmHg 55%
    03:00 +26°C° 0.1 mm 0 mps 726 mmHg 56%
    04:00 +25°C° 0.1 mm 0 mps 726 mmHg 56%
    05:00 +25°C° 0.1 mm 0 mps 726 mmHg 56%
    06:00 +26°C° 0.6 mm 0 mps 726 mmHg 54%
    07:00 +27°C° 0.6 mm 0 mps 727 mmHg 52%
    08:00 +27°C° 0.6 mm 0 mps 727 mmHg 50%
    09:00 +30°C° 0.1 mm 1 mps 727 mmHg 47%
    10:00 +31°C° 0.1 mm 1 mps 727 mmHg 44%
    11:00 +32°C° 0.1 mm 2 mps 727 mmHg 42%
    12:00 +34°C° 0.1 mm 2 mps 727 mmHg 39%
    13:00 +35°C° 0.1 mm 2 mps 727 mmHg 36%
    14:00 +36°C° 0.1 mm 2 mps 726 mmHg 33%
    15:00 +36°C° 0 mm 3 mps 726 mmHg 33%
    16:00 +37°C° 0 mm 3 mps 726 mmHg 32%
    17:00 +37°C° 0 mm 4 mps 726 mmHg 31%
    18:00 +36°C° 0.1 mm 4 mps 726 mmHg 34%
    19:00 +34°C° 0.1 mm 3 mps 726 mmHg 37%
    20:00 +33°C° 0.1 mm 3 mps 726 mmHg 41%
    21:00 +31°C° 0.5 mm 3 mps 726 mmHg 44%
    22:00 +30°C° 0.5 mm 2 mps 726 mmHg 48%
    23:00 +30°C° 0.5 mm 2 mps 727 mmHg 52%

    1 June, Monday

    Time Temperature Precipitation Wind Pressure Humidity
    00:00 +29°C° 0.5 mm 2 mps 727 mmHg 56%
    01:00 +28°C° 0.5 mm 2 mps 726 mmHg 59%
    02:00 +27°C° 0.5 mm 1 mps 726 mmHg 63%
    03:00 +27°C° 1 mm 1 mps 726 mmHg 67%
    04:00 +26°C° 1 mm 1 mps 726 mmHg 71%
    05:00 +25°C° 1 mm 1 mps 726 mmHg 76%
    06:00 +26°C° 0.4 mm 1 mps 727 mmHg 72%
    07:00 +27°C° 0.4 mm 1 mps 727 mmHg 68%
    08:00 +27°C° 0.4 mm 1 mps 727 mmHg 65%
    09:00 +29°C° 0 mm 1 mps 727 mmHg 59%
    10:00 +30°C° 0 mm 1 mps 727 mmHg 53%
    11:00 +32°C° 0 mm 1 mps 727 mmHg 47%
    12:00 +33°C° 0 mm 1 mps 727 mmHg 42%
    13:00 +35°C° 0 mm 2 mps 727 mmHg 38%
    14:00 +36°C° 0 mm 3 mps 727 mmHg 33%
    15:00 +37°C° 0 mm 3 mps 726 mmHg 32%
    16:00 +37°C° 0 mm 3 mps 726 mmHg 31%
    17:00 +37°C° 0 mm 3 mps 726 mmHg 30%
    18:00 +36°C° 0 mm 3 mps 726 mmHg 34%
    19:00 +34°C° 0 mm 3 mps 726 mmHg 38%
    20:00 +33°C° 0 mm 3 mps 726 mmHg 42%
    21:00 +31°C° 0 mm 3 mps 726 mmHg 44%
    22:00 +31°C° 0 mm 2 mps 726 mmHg 46%
    23:00 +30°C° 0 mm 1 mps 727 mmHg 47%
    Show more